TimeCDT,TemperatureF,Dew PointF,Humidity,Sea Level PressureIn,VisibilityMPH,Wind Direction,Wind SpeedMPH,Gust SpeedMPH,PrecipitationIn,Events,Conditions,WindDirDegrees,DateUTC
12:15 AM,80.4,69.8,70,29.99,10.0,West,4.6,-,N/A,,Scattered Clouds,280,2013-06-18 05:15:00
12:35 AM,80.2,70.0,71,29.98,10.0,WNW,5.8,-,N/A,,Scattered Clouds,290,2013-06-18 05:35:00
12:55 AM,80.1,69.8,71,29.98,10.0,Calm,Calm,-,N/A,,Scattered Clouds,0,2013-06-18 05:55:00
1:15 AM,80.4,69.8,70,29.96,10.0,WSW,8.1,-,N/A,,Mostly Cloudy,250,2013-06-18 06:15:00
1:35 AM,78.4,63.0,59,29.99,10.0,West,20.7,32.2,N/A,Thunderstorm,Mostly Cloudy,280,2013-06-18 06:35:00
1:55 AM,77.2,63.1,62,29.98,10.0,West,21.9,28.8,N/A,Thunderstorm,Scattered Clouds,280,2013-06-18 06:55:00
2:15 AM,76.5,62.4,62,30.03,10.0,NW,18.4,33.4,N/A,,Clear,310,2013-06-18 07:15:00
2:35 AM,74.7,63.9,69,30.08,10.0,NW,16.1,32.2,N/A,,Scattered Clouds,320,2013-06-18 07:35:00
2:55 AM,73.6,65.7,76,30.07,10.0,North,15.0,20.7,N/A,,Overcast,10,2013-06-18 07:55:00
3:15 AM,71.8,64.0,77,30.05,10.0,North,11.5,-,N/A,,Mostly Cloudy,10,2013-06-18 08:15:00
3:35 AM,71.8,61.5,70,30.00,10.0,North,15.0,-,N/A,Thunderstorm,Clear,10,2013-06-18 08:35:00
3:55 AM,71.8,62.8,73,29.97,10.0,North,11.5,19.6,N/A,,Scattered Clouds,10,2013-06-18 08:55:00
4:15 AM,71.8,63.5,75,29.95,10.0,NNE,4.6,-,N/A,,Scattered Clouds,20,2013-06-18 09:15:00
4:35 AM,71.6,63.7,76,29.96,10.0,NNW,4.6,-,N/A,,Clear,340,2013-06-18 09:35:00
4:55 AM,71.2,64.0,78,29.94,10.0,West,4.6,-,N/A,,Mostly Cloudy,280,2013-06-18 09:55:00
5:15 AM,71.6,64.6,78,29.93,10.0,South,8.1,-,N/A,,Overcast,190,2013-06-18 10:15:00
5:35 AM,71.6,63.7,76,29.93,10.0,South,8.1,-,N/A,,Mostly Cloudy,180,2013-06-18 10:35:00
5:55 AM,72.0,63.1,74,29.93,10.0,SE,9.2,-,N/A,,Mostly Cloudy,130,2013-06-18 10:55:00
6:15 AM,71.6,62.8,74,29.97,10.0,WNW,3.5,-,N/A,,Mostly Cloudy,300,2013-06-18 11:15:00
6:35 AM,72.1,63.5,74,30.00,10.0,NNE,8.1,-,N/A,,Overcast,20,2013-06-18 11:35:00
6:55 AM,71.8,64.0,77,30.02,10.0,NE,10.4,-,N/A,,Overcast,40,2013-06-18 11:55:00
7:15 AM,70.7,63.9,79,30.03,10.0,Calm,Calm,-,N/A,,Overcast,0,2013-06-18 12:15:00
7:35 AM,70.9,64.0,79,30.02,10.0,East,3.5,-,N/A,,Overcast,80,2013-06-18 12:35:00
7:55 AM,71.2,64.0,78,30.02,10.0,SE,4.6,-,N/A,,Overcast,140,2013-06-18 12:55:00
8:15 AM,72.9,63.7,73,30.03,10.0,WNW,3.5,-,N/A,,Scattered Clouds,290,2013-06-18 13:15:00
8:35 AM,73.8,63.7,71,30.03,10.0,WSW,3.5,-,N/A,,Scattered Clouds,250,2013-06-18 13:35:00
8:55 AM,75.4,63.7,67,30.03,10.0,West,3.5,-,N/A,,Mostly Cloudy,280,2013-06-18 13:55:00
9:15 AM,76.1,64.2,67,30.04,10.0,WNW,6.9,-,N/A,,Scattered Clouds,290,2013-06-18 14:15:00
9:35 AM,76.1,63.7,65,30.05,10.0,West,6.9,-,N/A,,Clear,280,2013-06-18 14:35:00
9:55 AM,76.6,64.4,66,30.06,10.0,NNW,5.8,-,N/A,,Clear,330,2013-06-18 14:55:00
10:15 AM,79.0,64.4,61,30.05,10.0,North,3.5,-,N/A,,Clear,360,2013-06-18 15:15:00
10:35 AM,80.2,64.6,59,30.04,10.0,NE,4.6,-,N/A,,Clear,50,2013-06-18 15:35:00
10:55 AM,81.0,64.6,57,30.04,10.0,NNW,4.6,-,N/A,,Clear,330,2013-06-18 15:55:00
11:15 AM,82.0,63.9,54,30.04,10.0,NNE,6.9,-,N/A,,Clear,30,2013-06-18 16:15:00
11:35 AM,82.4,64.4,54,30.03,10.0,North,3.5,-,N/A,,Clear,360,2013-06-18 16:35:00
11:55 AM,83.8,63.7,51,30.03,10.0,North,6.9,-,N/A,,Clear,350,2013-06-18 16:55:00
12:15 PM,86.0,62.4,45,30.03,10.0,NNW,3.5,-,N/A,,Clear,340,2013-06-18 17:15:00
12:35 PM,86.5,61.5,43,30.03,10.0,ENE,4.6,-,N/A,,Clear,60,2013-06-18 17:35:00
12:55 PM,86.2,61.2,43,30.02,10.0,NE,9.2,-,N/A,,Scattered Clouds,40,2013-06-18 17:55:00
1:15 PM,87.8,61.9,42,30.02,10.0,East,4.6,-,N/A,,Scattered Clouds,80,2013-06-18 18:15:00
1:35 PM,88.3,61.5,40,30.01,10.0,North,5.8,-,N/A,,Scattered Clouds,350,2013-06-18 18:35:00
1:55 PM,88.9,60.6,39,30.00,10.0,North,4.6,-,N/A,,Scattered Clouds,360,2013-06-18 18:55:00
2:15 PM,90.0,63.1,41,30.00,10.0,ENE,9.2,-,N/A,,Scattered Clouds,60,2013-06-18 19:15:00
2:35 PM,88.9,62.1,41,29.99,10.0,East,8.1,-,N/A,,Scattered Clouds,80,2013-06-18 19:35:00
2:55 PM,89.8,59.4,36,29.99,10.0,NW,8.1,-,N/A,,Scattered Clouds,320,2013-06-18 19:55:00
3:15 PM,90.1,60.4,37,29.98,10.0,North,4.6,-,N/A,,Scattered Clouds,10,2013-06-18 20:15:00
3:35 PM,90.5,58.5,34,29.97,10.0,ENE,8.1,-,N/A,,Clear,60,2013-06-18 20:35:00
3:55 PM,89.2,59.2,36,29.97,10.0,NE,8.1,-,N/A,,Scattered Clouds,40,2013-06-18 20:55:00
4:15 PM,90.0,60.1,37,29.96,10.0,Calm,Calm,-,N/A,,Scattered Clouds,0,2013-06-18 21:15:00
4:35 PM,88.7,59.4,37,29.96,10.0,NNE,4.6,-,N/A,,Scattered Clouds,30,2013-06-18 21:35:00
4:55 PM,91.2,59.9,35,29.95,10.0,NE,10.4,-,N/A,,Scattered Clouds,40,2013-06-18 21:55:00
5:15 PM,90.3,59.2,35,29.94,10.0,North,6.9,-,N/A,,Clear,360,2013-06-18 22:15:00
5:35 PM,88.7,60.1,38,29.94,10.0,North,3.5,-,N/A,,Clear,10,2013-06-18 22:35:00
5:55 PM,88.9,58.8,36,29.93,10.0,NE,5.8,-,N/A,,Clear,50,2013-06-18 22:55:00
6:15 PM,88.7,59.9,38,29.93,10.0,North,8.1,-,N/A,,Clear,10,2013-06-18 23:15:00
6:35 PM,90.5,58.6,34,29.93,10.0,NNE,4.6,-,N/A,,Clear,20,2013-06-18 23:35:00
6:55 PM,90.5,60.4,36,29.93,10.0,NE,11.5,-,N/A,,Clear,40,2013-06-18 23:55:00
7:15 PM,89.6,60.3,37,29.93,10.0,NNE,9.2,-,N/A,,Clear,30,2013-06-19 00:15:00
7:35 PM,88.9,60.4,38,29.93,10.0,NE,8.1,-,N/A,,Clear,50,2013-06-19 00:35:00
7:55 PM,88.3,61.3,40,29.93,10.0,ENE,8.1,-,N/A,,Clear,70,2013-06-19 00:55:00
8:15 PM,87.1,62.1,43,29.93,10.0,East,8.1,-,N/A,,Clear,80,2013-06-19 01:15:00
8:35 PM,86.0,62.4,45,29.93,10.0,East,8.1,-,N/A,,Clear,80,2013-06-19 01:35:00
8:55 PM,84.4,62.6,48,29.93,10.0,East,8.1,-,N/A,,Clear,80,2013-06-19 01:55:00
9:15 PM,83.3,62.8,50,29.93,10.0,East,6.9,-,N/A,,Clear,80,2013-06-19 02:15:00
9:35 PM,82.6,63.1,52,29.94,10.0,East,5.8,-,N/A,,Clear,90,2013-06-19 02:35:00
9:55 PM,81.5,63.3,54,29.94,10.0,East,5.8,-,N/A,,Clear,100,2013-06-19 02:55:00
10:15 PM,81.1,62.6,53,29.95,10.0,East,9.2,-,N/A,,Clear,100,2013-06-19 03:15:00
10:35 PM,80.6,63.5,56,29.96,10.0,ESE,10.4,-,N/A,,Clear,110,2013-06-19 03:35:00
10:55 PM,80.1,64.4,59,29.96,10.0,ESE,9.2,-,N/A,,Clear,110,2013-06-19 03:55:00
11:15 PM,79.5,64.6,60,29.97,10.0,ESE,10.4,-,N/A,,Clear,110,2013-06-19 04:15:00
11:35 PM,78.8,64.8,62,29.97,10.0,ESE,6.9,-,N/A,,Clear,110,2013-06-19 04:35:00
11:55 PM,78.3,64.9,63,29.98,10.0,ESE,8.1,-,N/A,,Clear,110,2013-06-19 04:55:00